When you browse on this site, cookies collect data to enhance your experience and personalize the content and advertising you see.
Visit our Privacy Policy to learn more. By continuing to use the site, you agree to this use of cookies and data.
  • In Hungary
  • List of Countries
  • For 7 days
  • Water Temperature
  • Weather Map
  • News
  • Weather Widgets
  • user-avatar
    Login

    Hourly Weather Trudovoe

    Today, 3 June, Wednesday

    Time Temperature Precipitation Wind Pressure Humidity
    00:00 +19°C° 0 mm 5 mps 748 mmHg 64%
    01:00 +17°C° 0 mm 5 mps 748 mmHg 68%
    02:00 +17°C° 0 mm 5 mps 748 mmHg 68%
    03:00 +18°C° 0 mm 4 mps 748 mmHg 68%
    04:00 +18°C° 0 mm 4 mps 748 mmHg 67%
    05:00 +18°C° 0 mm 4 mps 748 mmHg 67%
    06:00 +19°C° 0 mm 5 mps 748 mmHg 66%
    07:00 +20°C° 0 mm 6 mps 748 mmHg 66%
    08:00 +22°C° 0 mm 6 mps 748 mmHg 61%
    09:00 +24°C° 0 mm 6 mps 748 mmHg 57%
    10:00 +27°C° 0 mm 5 mps 748 mmHg 51%
    11:00 +28°C° 0 mm 6 mps 748 mmHg 47%
    12:00 +28°C° 0 mm 6 mps 748 mmHg 43%
    13:00 +29°C° 0 mm 6 mps 748 mmHg 40%
    14:00 +29°C° 0 mm 6 mps 748 mmHg 41%
    15:00 +29°C° 0 mm 6 mps 748 mmHg 42%
    16:00 +30°C° 0 mm 5 mps 748 mmHg 40%
    17:00 +29°C° 0 mm 5 mps 747 mmHg 44%
    18:00 +28°C° 0 mm 5 mps 747 mmHg 48%
    19:00 +27°C° 0 mm 5 mps 747 mmHg 53%
    20:00 +26°C° 0 mm 6 mps 747 mmHg 55%
    21:00 +24°C° 0 mm 7 mps 747 mmHg 57%
    22:00 +23°C° 0 mm 8 mps 747 mmHg 59%
    23:00 +23°C° 0 mm 7 mps 747 mmHg 58%

    Tomorrow, 4 June, Thursday

    Time Temperature Precipitation Wind Pressure Humidity
    00:00 +22°C° 0 mm 7 mps 747 mmHg 58%
    01:00 +22°C° 0 mm 7 mps 747 mmHg 57%
    02:00 +21°C° 0 mm 6 mps 747 mmHg 58%
    03:00 +21°C° 0 mm 6 mps 747 mmHg 60%
    04:00 +21°C° 0 mm 6 mps 747 mmHg 61%
    05:00 +21°C° 0 mm 6 mps 747 mmHg 60%
    06:00 +21°C° 0 mm 7 mps 747 mmHg 60%
    07:00 +21°C° 0 mm 8 mps 747 mmHg 59%
    08:00 +22°C° 0 mm 8 mps 748 mmHg 56%
    09:00 +23°C° 0 mm 8 mps 748 mmHg 53%
    10:00 +24°C° 0 mm 8 mps 748 mmHg 49%
    11:00 +24°C° 0 mm 7 mps 748 mmHg 49%
    12:00 +24°C° 0 mm 6 mps 748 mmHg 50%
    13:00 +24°C° 0 mm 6 mps 748 mmHg 50%
    14:00 +24°C° 0.1 mm 6 mps 748 mmHg 51%
    15:00 +24°C° 0.1 mm 6 mps 748 mmHg 53%
    16:00 +24°C° 0.1 mm 6 mps 748 mmHg 54%
    17:00 +23°C° 0.4 mm 6 mps 748 mmHg 57%
    18:00 +22°C° 0.4 mm 7 mps 748 mmHg 60%
    19:00 +21°C° 0.4 mm 7 mps 748 mmHg 63%
    20:00 +21°C° 0 mm 7 mps 748 mmHg 59%
    21:00 +21°C° 0 mm 8 mps 748 mmHg 55%
    22:00 +21°C° 0 mm 8 mps 749 mmHg 52%
    23:00 +20°C° 0 mm 8 mps 749 mmHg 50%

    Day after tomorrow, 5 June, Friday

    Time Temperature Precipitation Wind Pressure Humidity
    00:00 +20°C° 0 mm 8 mps 749 mmHg 49%
    01:00 +20°C° 0 mm 7 mps 749 mmHg 47%
    02:00 +20°C° 0 mm 7 mps 750 mmHg 48%
    03:00 +18°C° 0 mm 7 mps 750 mmHg 48%
    04:00 +18°C° 0 mm 7 mps 750 mmHg 48%
    05:00 +18°C° 0 mm 8 mps 751 mmHg 51%
    06:00 +17°C° 0 mm 8 mps 751 mmHg 53%
    07:00 +17°C° 0 mm 9 mps 751 mmHg 56%
    08:00 +17°C° 0 mm 8 mps 751 mmHg 54%
    09:00 +18°C° 0 mm 8 mps 752 mmHg 52%
    10:00 +20°C° 0 mm 7 mps 752 mmHg 51%
    11:00 +20°C° 0 mm 7 mps 752 mmHg 50%
    12:00 +21°C° 0 mm 6 mps 752 mmHg 48%
    13:00 +22°C° 0 mm 6 mps 752 mmHg 47%
    14:00 +22°C° 0 mm 5 mps 752 mmHg 47%
    15:00 +23°C° 0 mm 5 mps 752 mmHg 47%
    16:00 +23°C° 0 mm 5 mps 752 mmHg 47%
    17:00 +23°C° 0 mm 5 mps 752 mmHg 48%
    18:00 +23°C° 0 mm 5 mps 752 mmHg 49%
    19:00 +23°C° 0 mm 5 mps 752 mmHg 51%
    20:00 +22°C° 0 mm 6 mps 752 mmHg 50%
    21:00 +21°C° 0 mm 7 mps 752 mmHg 48%
    22:00 +20°C° 0 mm 8 mps 752 mmHg 47%
    23:00 +18°C° 0 mm 7 mps 752 mmHg 46%

    6 June, Saturday

    Time Temperature Precipitation Wind Pressure Humidity
    00:00 +17°C° 0 mm 6 mps 752 mmHg 44%
    01:00 +16°C° 0 mm 6 mps 752 mmHg 43%
    02:00 +16°C° 0 mm 5 mps 752 mmHg 42%
    03:00 +16°C° 0 mm 5 mps 753 mmHg 42%
    04:00 +16°C° 0 mm 5 mps 753 mmHg 42%
    05:00 +16°C° 0 mm 5 mps 753 mmHg 43%
    06:00 +17°C° 0 mm 5 mps 753 mmHg 45%
    07:00 +19°C° 0 mm 6 mps 753 mmHg 46%
    08:00 +19°C° 0 mm 6 mps 753 mmHg 47%
    09:00 +19°C° 0 mm 6 mps 754 mmHg 48%
    10:00 +19°C° 0 mm 5 mps 754 mmHg 49%
    11:00 +19°C° 0 mm 5 mps 754 mmHg 51%
    12:00 +20°C° 0 mm 4 mps 754 mmHg 52%
    13:00 +20°C° 0 mm 3 mps 754 mmHg 53%
    14:00 +20°C° 0 mm 3 mps 754 mmHg 53%
    15:00 +21°C° 0 mm 3 mps 754 mmHg 53%
    16:00 +21°C° 0 mm 4 mps 754 mmHg 53%
    17:00 +20°C° 0 mm 4 mps 754 mmHg 57%
    18:00 +19°C° 0 mm 4 mps 754 mmHg 60%
    19:00 +18°C° 0 mm 4 mps 754 mmHg 63%
    20:00 +17°C° 0 mm 3 mps 754 mmHg 65%
    21:00 +16°C° 0 mm 2 mps 754 mmHg 66%
    22:00 +15°C° 0 mm 1 mps 755 mmHg 67%
    23:00 +15°C° 0 mm 1 mps 755 mmHg 66%

    7 June, Sunday

    Time Temperature Precipitation Wind Pressure Humidity
    00:00 +15°C° 0 mm 1 mps 754 mmHg 66%
    01:00 +15°C° 0 mm 1 mps 754 mmHg 66%
    02:00 +15°C° 0 mm 2 mps 755 mmHg 66%
    03:00 +15°C° 0 mm 2 mps 755 mmHg 66%
    04:00 +15°C° 0 mm 2 mps 755 mmHg 66%
    05:00 +16°C° 0 mm 3 mps 755 mmHg 65%
    06:00 +16°C° 0 mm 3 mps 755 mmHg 64%
    07:00 +17°C° 0 mm 3 mps 755 mmHg 63%
    08:00 +19°C° 0 mm 4 mps 755 mmHg 55%
    09:00 +21°C° 0 mm 4 mps 755 mmHg 48%
    10:00 +23°C° 0 mm 4 mps 755 mmHg 40%
    11:00 +25°C° 0 mm 4 mps 755 mmHg 38%
    12:00 +26°C° 0 mm 4 mps 755 mmHg 35%
    13:00 +27°C° 0 mm 4 mps 755 mmHg 33%
    14:00 +27°C° 0 mm 4 mps 755 mmHg 32%
    15:00 +27°C° 0 mm 4 mps 754 mmHg 32%
    16:00 +28°C° 0 mm 4 mps 754 mmHg 32%
    17:00 +27°C° 0 mm 3 mps 754 mmHg 35%
    18:00 +26°C° 0 mm 3 mps 754 mmHg 39%
    19:00 +26°C° 0 mm 2 mps 754 mmHg 42%
    20:00 +24°C° 0 mm 3 mps 754 mmHg 42%
    21:00 +22°C° 0 mm 3 mps 754 mmHg 43%
    22:00 +20°C° 0 mm 3 mps 754 mmHg 43%
    23:00 +19°C° 0 mm 3 mps 754 mmHg 43%

    8 June, Monday

    Time Temperature Precipitation Wind Pressure Humidity
    00:00 +19°C° 0 mm 3 mps 754 mmHg 43%
    01:00 +18°C° 0 mm 3 mps 754 mmHg 42%
    02:00 +19°C° 0 mm 3 mps 754 mmHg 43%
    03:00 +19°C° 0 mm 3 mps 754 mmHg 43%
    04:00 +19°C° 0 mm 3 mps 754 mmHg 43%
    05:00 +19°C° 0 mm 3 mps 754 mmHg 46%
    06:00 +19°C° 0 mm 4 mps 754 mmHg 49%
    07:00 +19°C° 0 mm 4 mps 754 mmHg 51%
    08:00 +21°C° 0 mm 4 mps 754 mmHg 47%
    09:00 +23°C° 0 mm 4 mps 754 mmHg 43%
    10:00 +26°C° 0 mm 4 mps 754 mmHg 38%
    11:00 +27°C° 0 mm 4 mps 754 mmHg 35%
    12:00 +28°C° 0 mm 4 mps 754 mmHg 32%
    13:00 +29°C° 0 mm 4 mps 754 mmHg 29%
    14:00 +29°C° 0 mm 4 mps 754 mmHg 29%
    15:00 +29°C° 0 mm 4 mps 754 mmHg 29%
    16:00 +29°C° 0 mm 4 mps 754 mmHg 29%
    17:00 +28°C° 0 mm 4 mps 754 mmHg 33%
    18:00 +27°C° 0 mm 3 mps 754 mmHg 38%
    19:00 +26°C° 0 mm 3 mps 754 mmHg 42%
    20:00 +25°C° 0 mm 3 mps 754 mmHg 44%
    21:00 +22°C° 0 mm 3 mps 754 mmHg 46%
    22:00 +20°C° 0 mm 3 mps 755 mmHg 48%
    23:00 +20°C° 0 mm 3 mps 755 mmHg 49%
    Show more